TimeMDT,TemperatureF,Dew PointF,Humidity,Sea Level PressureIn,VisibilityMPH,Wind Direction,Wind SpeedMPH,Gust SpeedMPH,PrecipitationIn,Events,Conditions,WindDirDegrees,DateUTC
12:55 AM,50.0,32.0,50,29.94,10.0,NNW,5.8,-,N/A,,Partly Cloudy,330,2012-10-14 06:55:00
1:55 AM,48.9,32.0,52,29.96,10.0,WNW,6.9,-,N/A,,Mostly Cloudy,290,2012-10-14 07:55:00
2:55 AM,45.0,30.9,58,29.97,10.0,WNW,5.8,-,N/A,,Overcast,300,2012-10-14 08:55:00
3:55 AM,46.0,32.0,58,29.97,10.0,WNW,5.8,-,N/A,,Mostly Cloudy,300,2012-10-14 09:55:00
4:55 AM,43.0,32.0,65,29.99,10.0,West,3.5,-,N/A,,Partly Cloudy,280,2012-10-14 10:55:00
5:55 AM,41.0,30.9,67,30.00,10.0,West,5.8,-,N/A,,Clear,270,2012-10-14 11:55:00
6:55 AM,42.1,33.1,70,30.01,10.0,West,6.9,-,N/A,,Scattered Clouds,280,2012-10-14 12:55:00
7:55 AM,46.0,35.1,66,30.03,10.0,WSW,5.8,-,N/A,,Partly Cloudy,250,2012-10-14 13:55:00
8:55 AM,57.9,39.0,49,30.00,10.0,NW,20.7,26.5,N/A,,Clear,310,2012-10-14 14:55:00
9:55 AM,62.1,39.0,43,30.00,10.0,WNW,21.9,-,N/A,,Clear,300,2012-10-14 15:55:00
10:55 AM,64.9,39.0,39,30.00,10.0,WNW,21.9,-,N/A,,Clear,300,2012-10-14 16:55:00
11:55 AM,69.1,37.9,32,29.99,10.0,NW,19.6,28.8,N/A,,Clear,320,2012-10-14 17:55:00
12:55 PM,72.0,36.0,27,29.96,10.0,NW,20.7,29.9,N/A,,Clear,320,2012-10-14 18:55:00
1:55 PM,71.1,34.0,26,29.95,10.0,WNW,19.6,32.2,N/A,,Scattered Clouds,300,2012-10-14 19:55:00
2:55 PM,73.9,35.1,24,29.94,10.0,WNW,27.6,32.2,N/A,,Scattered Clouds,300,2012-10-14 20:55:00
3:55 PM,73.0,34.0,24,29.94,10.0,NW,23.0,29.9,N/A,,Clear,310,2012-10-14 21:55:00
4:55 PM,71.1,34.0,26,29.94,10.0,WNW,18.4,27.6,N/A,,Clear,300,2012-10-14 22:55:00
5:55 PM,66.0,34.0,30,29.96,10.0,NW,9.2,-,N/A,,Partly Cloudy,310,2012-10-14 23:55:00
6:55 PM,59.0,33.1,38,29.97,10.0,NW,10.4,-,N/A,,Clear,310,2012-10-15 00:55:00
7:55 PM,55.9,32.0,40,29.98,10.0,NW,10.4,-,N/A,,Clear,310,2012-10-15 01:55:00
8:55 PM,53.1,32.0,45,29.96,10.0,NW,8.1,-,N/A,,Clear,310,2012-10-15 02:55:00
9:55 PM,45.0,30.9,58,29.97,10.0,West,6.9,-,N/A,,Clear,260,2012-10-15 03:55:00
10:55 PM,44.1,30.9,60,29.96,10.0,West,8.1,-,N/A,,Clear,260,2012-10-15 04:55:00
11:55 PM,46.0,30.9,56,29.94,10.0,WNW,9.2,-,N/A,,Clear,290,2012-10-15 05:55:00